Regional Weather Roundup
Issued by NWS

Home | Current Version | Previous Version | Text Only | Print | Product List | Glossary Off
Versions: 1 2 3 4 5 6 7 8 9 10 11 12 13 14 15 16 17 18 19 20 21 22 23 24 25 26 27 28 29 30 31 32 33 34 35 36 37 38 39 40 41 42 43 44 45 46 47 48 49 50

000
ASUS43 KFSD 231510
RWRSD

WEATHER ROUNDUP FOR SOUTH DAKOTA
NATIONAL WEATHER SERVICE SIOUX FALLS SD
900 AM CST MON JAN 23 2017

NOTE: "FAIR" INDICATES FEW OR NO CLOUDS BELOW 12,000 FEET WITH NO
SIGNIFICANT WEATHER AND/OR OBSTRUCTIONS TO VISIBILITY.


SDZ001>005-009-010-012>017-231600-
NORTHWEST AND NORTH CENTRAL SOUTH DAKOTA

CITY           SKY/WX    TMP DP  RH WIND       PRES   REMARKS
BUFFALO          N/A     21  15  78 NE5       29.62F WCI  15
FAITH            N/A     24  22  91 E13       29.71F WCI  12
MOBRIDGE       CLOUDY    29  23  78 CALM      29.79S
$$

SDZ012>016-024>037-041>051-057-063-072>074-231600-
SOUTHWEST AND SOUTH CENTRAL SOUTH DAKOTA

CITY           SKY/WX    TMP DP  RH WIND       PRES   REMARKS
RAPID CTY ARPT CLOUDY    21  19  92 SE5       29.66F WCI  15
PIERRE         CLOUDY    26  23  88 E12       29.78F WCI  16
CUSTER         CLOUDY    25  17  72 CALM      29.57F
ELLSWORTH AFB  CLOUDY    21  19  93 E3        29.65
PHILIP         FOG       24  23  96 E9        29.74F VSB 1/4 WCI  14
PINE RIDGE     LGT SNOW  30  29  96 S3        29.67S VSB 3/4
SPEARFISH      FAIR      19  19 100 CALM      29.62F
WINNER         CLOUDY    26  24  92 SE7       29.80R WCI  18
$$

SDZ004>011-016>023-039-040-231600-
NORTHEAST SOUTH DAKOTA

CITY           SKY/WX    TMP DP  RH WIND       PRES   REMARKS
ABERDEEN       CLOUDY    30  24  78 SW3       29.86R
WATERTOWN      CLOUDY    28  26  92 W9        29.82R WCI  19
BROOKINGS      CLOUDY    29  26  89 NW9       29.84R WCI  20
SISSETON         N/A     32  28  85 NW7       29.83R WCI  26
$$

SDZ017-020-022-023-036>040-048>070-231600-
SOUTHEAST SOUTH DAKOTA

CITY           SKY/WX    TMP DP  RH WIND       PRES   REMARKS
SIOUX FALLS    FLURRIES  30  28  92 W7        29.87R WCI  23
HURON          CLOUDY    29  26  89 CALM      29.87R
CHAMBERLAIN    CLOUDY    30  28  90 SE7       29.83S WCI  23
MITCHELL       CLOUDY    30  26  85 CALM      29.88R
YANKTON        CLOUDY    30  25  80 SW6       29.88S WCI  24
$$

ABBREVIATIONS USED IN REMARKS
   TC - TEMPERATURE IN CELSIUS
  WCI - WIND CHILL INDEX
   HX - HEAT INDEX
  VSB - VISIBILITY




USA.gov is the U.S. government's official web portal to all federal, state and local government web resources and services.